User: anonymous   Login
Location: Clatteringshaws Loch
(55.0508°N, 4.2860°W)
Time: 08:29:23
(UTC+00:00)
Language:

ALOS - Orbit

View from above orbital plane
View from above orbital plane
View from above satellite
View from above satellite

Ground track
Ground track

The orbit data is extracted from the following two-line orbital elements,

1 28931U 06002A   16340.22058362  .00000235  00000-0  55262-4 0  9997
2 28931  97.8649  11.0730 0001042 126.3262 233.8036 14.62285379579114
Epoch (UTC): 05 December 2016 05:17:38
Eccentricity: 0.0001042
inclination: 97.8649°
perigee height: 685 km
apogee height: 686 km
right ascension of ascending node: 11.0730°
argument of perigee: 126.3262°
revolutions per day: 14.62285379
mean anomaly at epoch: 233.8036°
orbit number at epoch: 57911

The dashed part of the orbit path shows where the satellite is in the earth's shadow,  

DLR